Weather History for Bangor, ME

Change the Weather History Date:

Friday, March 21, 2014

  Actual Average Record
Temperature  
Mean Temperature 32 °F 32 °F  
Max Temperature 39 °F 42 °F 83 °F (2012)
Min Temperature 25 °F 23 °F 2 °F (1986)
Degree Days  
Heating Degree Days 33 33  
Month to date heating degree days 927 768  
Since 1 July heating degree days 6679 6414  
Cooling Degree Days 0 0  
Month to date cooling degree days 0 0  
Year to date cooling degree days 0 0  
Moisture  
Dew Point 21 °F    
Average Humidity 63    
Maximum Humidity 85    
Minimum Humidity 40    
Precipitation  
Precipitation 0.00 in 0.11 in 1.24 in (1983)
Month to date precipitation 2.12 2.18  
Year to date precipitation 7.29 7.59  
Snow  
Snow 0.00 in 0.30 in 5.50 in (1970)
Month to date snowfall 15.3 8.6  
Since 1 July snowfall 78.5 59.3  
Snow Depth 10.00 in    
Sea Level Pressure  
Sea Level Pressure 29.70 in    
Wind  
Wind Speed 9 mph (West)    
Max Wind Speed 21 mph    
Max Gust Speed 34 mph    
Visibility 10 miles    
Events      
T = Trace of Precipitation, MM = Missing Value Source: NWS Daily Summary

Daily Weather History Graph

Daily Weather History Graph

Search for Another Location

Airport:

Trip Planner

Search our weather history database for the weather conditions in past years. The results will help you decide how hot, cold, wet, or windy it might be!

Date:

Astronomy

Mar. 21, 2014 Rise Set
Actual Time 6:36 AM EDT 6:48 PM EDT
Civil Twilight 6:07 AM EDT 7:18 PM EDT
Nautical Twilight 5:33 AM EDT 7:52 PM EDT
Astronomical Twilight 4:58 AM EDT 8:27 PM EDT
Moon No Moon Rise 9:14 AM EDT (3/21)
Length of Visible Light 13h 10m
Length of Day
12h 12m
Waning Gibbous, 75% of the Moon is Illuminated
Mar 21
Waning Gibbous
Mar 23
Last Quarter
Mar 30
New
Apr 7
First Quarter
Apr 15
Full

Hourly Weather History & Observations

Time (EDT) Temp. Windchill Dew Point Humidity Pressure Visibility Wind Dir Wind Speed Gust Speed Precip Events Conditions
12:53 AM 30.9 °F 25.2 °F 27.0 °F 85% 29.58 in 10.0 mi SW 5.8 mph - N/A   Partly Cloudy
1:53 AM 34.0 °F 28.8 °F 26.1 °F 73% 29.59 in 10.0 mi SW 5.8 mph - N/A   Scattered Clouds
2:53 AM 33.1 °F 26.1 °F 24.1 °F 70% 29.58 in 10.0 mi SW 8.1 mph - N/A   Mostly Cloudy
3:53 AM 34.0 °F 28.8 °F 25.0 °F 70% 29.58 in 10.0 mi SW 5.8 mph - N/A   Overcast
4:53 AM 34.0 °F 28.0 °F 25.0 °F 70% 29.59 in 10.0 mi SSW 6.9 mph - N/A   Overcast
5:53 AM 34.0 °F 28.0 °F 24.1 °F 67% 29.59 in 10.0 mi SSW 6.9 mph - N/A   Overcast
6:53 AM 35.1 °F 27.9 °F 21.9 °F 59% 29.60 in 10.0 mi SW 9.2 mph - N/A   Overcast
7:53 AM 35.1 °F 27.9 °F 21.9 °F 59% 29.61 in 10.0 mi WSW 9.2 mph 19.6 mph N/A   Overcast
8:53 AM 37.0 °F 29.8 °F 21.9 °F 54% 29.62 in 10.0 mi WSW 10.4 mph 19.6 mph N/A   Mostly Cloudy
9:53 AM 37.0 °F 27.7 °F 21.9 °F 54% 29.63 in 10.0 mi West 16.1 mph 24.2 mph N/A   Mostly Cloudy
10:53 AM 37.0 °F 27.7 °F 21.0 °F 52% 29.65 in 10.0 mi WNW 16.1 mph 26.5 mph N/A   Mostly Cloudy
11:53 AM 37.9 °F 29.2 °F 19.9 °F 48% 29.66 in 10.0 mi NW 15.0 mph 24.2 mph N/A   Mostly Cloudy
12:53 PM 37.9 °F 32.1 °F 19.9 °F 48% 29.68 in 10.0 mi West 8.1 mph 18.4 mph N/A   Mostly Cloudy
1:53 PM 37.9 °F 30.9 °F 19.0 °F 47% 29.68 in 10.0 mi WNW 10.4 mph - N/A   Mostly Cloudy
2:53 PM 39.0 °F 30.3 °F 18.0 °F 43% 29.69 in 10.0 mi WNW 16.1 mph 24.2 mph N/A   Mostly Cloudy
3:53 PM 37.9 °F 29.6 °F 17.1 °F 43% 29.71 in 10.0 mi WNW 13.8 mph 26.5 mph N/A   Mostly Cloudy
4:53 PM 35.1 °F 25.5 °F 19.0 °F 52% 29.74 in 10.0 mi NW 15.0 mph 27.6 mph N/A   Mostly Cloudy
5:53 PM 34.0 °F 24.2 °F 18.0 °F 52% 29.78 in 10.0 mi WNW 15.0 mph 23.0 mph N/A   Overcast
6:53 PM 33.1 °F 26.1 °F 18.0 °F 54% 29.81 in 10.0 mi WNW 8.1 mph - N/A   Overcast
7:53 PM 33.1 °F 23.9 °F 19.0 °F 56% 29.83 in 10.0 mi WNW 12.7 mph 17.3 mph N/A   Overcast
8:53 PM 33.1 °F 23.9 °F 19.0 °F 56% 29.86 in 10.0 mi WNW 12.7 mph - N/A   Overcast
9:53 PM 30.9 °F 26.2 °F 19.0 °F 61% 29.88 in 10.0 mi WNW 4.6 mph - N/A   Scattered Clouds
10:53 PM 30.0 °F - 18.0 °F 61% 29.89 in 10.0 mi Calm Calm - N/A   Clear
11:53 PM 28.0 °F 24.2 °F 18.0 °F 66% 29.91 in 10.0 mi West 3.5 mph - N/A   Clear